Wind_Speed
13 13 14 15 16 17 18 18 18 19 19 18 17 15 14 14 14 14 14 14 14 13 12 11 11 11 11 12 11 11 10 10 10 9 9 9 9 9 9 9 10 11 12 12 13 13 13 13 12 12 11 10 9 9 9 8 8 8 8 8 8 8 7 7 7 7 6 7 9 9 9 10 10 10 11 12 12 12 12 12 12 12 12 12 12
15 15 15 16 17 17 17 17 18 19 20 21 20 19 17 16 15 16 16 16 15 14 14 13 12 12 12 12 11 11 11 10 10 10 10 10 10 10 10 10 10 11 12 12 13 13 14 15 15 14 13 11 11 10 10 10 10 9 9 9 8 8 7 8 8 8 8 8 9 11 10 10 11 11 11 12 12 12 12 12 12 11 11 11 12
19 17 16 17 18 18 18 18 18 19 20 23 23 21 19 17 16 17 18 18 17 16 15 15 14 13 12 12 12 12 12 11 11 11 11 11 11 11 11 11 11 11 11 12 13 13 14 14 15 15 15 14 13 13 12 12 11 11 11 11 11 10 9 10 10 10 10 9 9 10 11 11 11 10 10 10 11 11 11 11 10 10 10 10 11
23 21 20 20 21 21 21 19 19 19 20 23 24 23 21 18 17 17 18 18 19 18 17 16 16 15 14 13 13 13 13 12 11 11 11 11 12 12 12 12 12 12 12 12 13 13 14 14 15 15 15 15 15 15 15 15 15 14 14 14 13 12 12 12 11 11 11 11 9 9 9 10 10 9 9 9 9 9 9 8 8 9 9 10 10
23 24 23 23 24 25 24 22 21 20 21 22 24 25 23 20 19 18 18 18 19 18 17 17 17 17 16 15 14 14 13 13 12 12 12 12 12 13 13 13 13 13 13 13 13 13 14 14 14 15 15 15 14 15 15 16 16 16 16 15 15 14 13 13 12 11 11 11 10 8 8 8 9 8 8 9 9 9 8 7 8 8 8 9 10
23 24 25 26 26 26 27 25 24 23 22 23 23 25 25 23 21 20 19 18 18 18 18 18 18 18 17 16 15 15 14 14 13 12 12 12 12 13 14 14 14 15 14 14 14 14 14 14 14 15 15 15 14 15 15 15 15 16 16 15 14 14 14 12 12 12 12 12 11 11 10 9 10 10 10 9 9 9 8 8 9 8 7 9 10
23 24 26 28 28 28 28 28 27 25 23 23 23 24 25 25 24 22 20 19 18 19 19 19 19 19 18 18 17 16 15 15 14 13 13 13 13 13 14 14 15 15 15 15 15 15 15 14 14 15 15 15 15 15 15 16 16 16 15 14 14 14 13 12 12 13 13 13 13 13 13 12 12 13 12 10 9 8 7 8 9 10 10 10 10
25 24 25 26 28 29 31 32 30 28 26 25 23 23 24 26 26 24 21 20 19 19 20 20 20 19 19 18 18 18 17 17 17 16 15 14 14 14 14 14 14 15 15 15 15 16 15 15 15 15 16 16 16 16 17 17 17 17 16 15 14 14 14 13 13 13 14 14 15 15 15 15 15 14 13 12 10 8 8 7 8 9 10 12 13
24 24 23 23 24 27 31 34 33 33 31 28 26 24 24 25 26 25 23 22 20 20 20 20 20 20 20 19 19 19 19 20 20 19 18 17 16 15 14 14 14 14 15 15 16 17 17 16 16 16 16 17 17 17 18 18 18 18 18 16 16 15 15 15 14 15 15 15 16 16 16 16 17 16 15 14 11 10 10 9 8 8 9 12 16
22 22 22 21 21 23 28 32 35 36 34 31 28 27 25 25 26 26 25 24 23 21 21 21 21 21 21 20 20 20 20 21 21 21 21 20 18 17 16 16 16 16 16 16 17 18 18 18 18 18 18 18 18 18 18 19 19 20 20 18 18 17 17 17 17 16 16 16 17 18 17 17 19 18 16 15 14 12 11 10 8 8 9 11 16
22 21 20 19 18 19 22 27 33 36 34 31 31 29 27 27 26 25 26 26 25 24 23 22 22 21 21 21 21 21 21 22 22 22 22 22 21 19 18 18 18 18 19 19 20 20 20 20 20 20 20 20 20 20 20 20 21 21 21 20 19 18 18 18 18 18 18 18 18 19 18 18 19 19 17 16 14 12 11 10 9 9 10 12 15
21 20 19 18 17 17 17 19 25 31 31 30 31 29 28 28 27 25 25 25 25 25 24 23 23 22 22 21 21 21 22 22 22 22 22 22 22 21 20 20 19 20 21 21 21 22 22 22 22 22 22 23 22 22 22 22 23 23 22 22 21 20 20 20 20 20 20 19 19 20 20 19 19 20 18 16 14 12 12 11 11 11 12 13 15
20 19 19 17 16 16 15 14 17 23 27 28 29 28 27 28 27 26 25 24 24 24 25 25 25 24 24 23 23 23 23 23 22 22 22 22 22 22 21 20 20 21 22 22 23 23 23 23 23 23 24 24 24 24 23 24 24 24 23 23 22 22 22 22 22 22 22 21 20 20 21 21 19 19 20 17 15 15 14 14 14 14 15 16 16
21 20 19 17 16 16 16 15 14 17 21 24 25 25 25 26 26 25 24 23 23 24 26 27 27 26 26 26 26 25 24 23 23 23 23 23 23 22 22 22 21 22 23 24 24 24 24 24 24 24 24 24 24 24 24 25 25 24 24 23 23 23 23 23 23 24 24 23 22 21 22 22 20 19 21 20 18 18 17 17 17 18 19 18 19
21 21 20 19 17 16 17 17 16 15 16 18 19 21 22 23 24 24 24 23 24 25 26 27 28 28 28 28 28 27 25 24 24 24 24 24 23 23 23 22 22 23 23 24 25 26 26 26 25 25 25 24 25 25 25 25 24 24 25 25 24 24 23 24 24 24 24 24 23 22 22 22 21 21 22 22 21 21 20 19 21 22 21 20 21
21 21 22 21 20 17 16 16 16 14 13 14 15 17 19 20 22 22 23 24 25 25 26 27 28 28 28 29 29 29 28 27 26 25 25 25 25 24 23 22 22 22 23 24 25 26 27 27 27 26 26 25 26 25 25 24 23 23 24 25 25 25 24 25 26 26 25 24 23 22 21 22 22 22 23 25 25 24 22 21 23 24 22 21 22
24 23 23 22 21 19 18 17 16 15 15 15 15 15 16 17 19 19 19 20 22 24 26 27 29 30 30 30 31 30 30 29 29 28 26 26 26 25 24 23 22 22 22 23 23 25 26 28 28 28 27 27 27 27 26 25 23 23 23 24 25 25 25 27 28 27 26 25 24 23 22 22 22 23 25 26 26 26 24 24 25 26 23 22 22
25 24 24 24 23 21 20 19 18 17 18 18 18 17 17 17 17 17 16 16 18 20 23 26 29 31 32 32 31 31 31 32 32 31 29 28 27 27 26 25 24 24 23 23 23 23 25 27 28 28 29 28 28 28 28 26 24 24 24 24 24 25 26 29 30 28 27 27 25 24 23 23 24 25 26 27 28 28 26 26 26 26 25 24 24
26 26 26 26 26 24 23 23 22 21 21 21 21 21 20 20 20 19 17 17 18 18 19 21 24 27 28 29 28 29 30 32 34 33 32 30 29 29 29 28 26 26 25 24 24 24 25 26 27 28 29 29 29 29 29 28 26 25 25 24 24 25 27 29 29 29 29 28 27 25 25 25 25 26 27 29 30 30 28 27 27 27 26 26 27
29 29 28 28 28 27 27 26 25 25 25 24 23 23 23 23 23 22 20 19 20 20 19 20 21 21 22 23 23 23 26 28 29 31 31 31 31 31 30 29 28 27 27 26 27 26 26 26 27 28 29 30 31 31 30 30 29 28 27 26 25 26 28 29 29 29 29 29 28 28 27 27 27 28 29 30 32 32 31 29 29 29 28 28 29
33 32 31 31 32 31 29 28 26 26 27 26 25 24 25 25 25 25 24 22 21 21 22 23 24 22 20 21 22 23 24 23 23 24 25 26 28 29 29 29 29 29 29 28 28 28 28 28 27 29 30 31 32 32 32 32 31 30 29 29 27 27 28 29 30 30 30 29 29 29 29 29 30 30 31 31 33 33 32 31 31 32 31 31 31
36 35 34 34 34 33 31 30 29 29 30 29 28 27 27 28 28 27 27 26 25 24 24 25 26 25 23 23 24 26 26 23 22 23 25 26 27 27 26 27 28 29 30 29 29 29 30 29 29 29 31 32 33 33 33 33 32 32 31 31 30 29 29 30 31 31 31 31 31 31 31 32 33 33 34 34 35 36 35 35 35 35 35 34 33
38 37 36 36 35 35 35 33 32 33 33 33 32 31 31 30 30 30 29 29 28 28 27 27 28 29 28 27 27 28 28 27 25 27 29 29 29 28 26 25 26 27 28 29 29 30 31 31 30 30 31 32 33 34 34 34 33 33 33 33 32 32 31 31 31 32 32 32 33 33 33 35 35 36 37 38 38 38 38 38 38 38 37 36 35
39 38 38 37 37 37 37 36 35 36 36 36 35 35 34 34 33 33 32 32 31 30 30 30 31 32 32 32 31 31 31 31 31 31 30 30 30 30 29 28 27 26 26 27 28 29 31 31 31 31 31 32 33 34 35 35 35 35 34 34 34 34 33 33 34 34 34 33 34 33 34 35 37 37 38 38 38 39 39 39 40 40 38 37 37
41 40 40 39 39 39 38 38 38 38 38 38 38 38 37 37 37 36 36 35 34 33 33 32 32 32 33 34 34 34 34 34 35 35 34 33 33 32 31 31 30 28 27 27 28 29 30 30 31 31 32 33 34 35 35 36 36 36 36 36 36 35 36 36 36 36 35 35 35 35 35 36 37 38 38 38 38 38 39 40 40 41 41 40 39
43 42 42 41 41 41 40 40 40 40 40 40 40 40 40 40 39 39 39 38 37 37 36 35 34 34 34 34 35 35 35 35 35 36 36 36 36 35 34 33 32 31 31 30 30 30 30 31 31 32 33 33 34 35 36 36 36 36 36 36 36 36 37 38 39 38 38 37 37 36 36 37 38 39 39 39 39 39 40 41 41 41 42 42 41
46 46 45 44 44 43 43 42 42 42 42 42 42 42 43 42 42 41 41 40 40 39 39 38 37 37 37 36 36 36 36 36 36 36 37 37 38 37 36 35 34 34 34 34 34 34 33 33 33 33 34 35 35 36 36 37 37 36 36 36 36 36 37 39 39 39 40 39 39 39 39 40 40 40 40 40 40 40 41 42 41 40 42 43 41
49 49 48 48 47 47 46 46 45 45 45 45 45 45 45 45 44 44 43 43 42 42 42 41 40 39 39 39 38 38 38 38 37 37 38 38 38 38 38 37 37 36 36 37 37 37 38 38 38 37 37 38 39 39 39 39 38 37 37 37 37 37 38 39 39 39 39 39 39 39 40 41 41 41 41 41 41 41 42 41 41 41 41 42 41
53 53 52 52 51 51 50 50 49 49 48 48 48 47 47 47 47 46 46 45 45 44 44 43 43 42 41 41 40 40 40 40 39 39 39 39 39 39 39 39 39 39 39 39 40 40 41 42 42 42 42 41 41 41 41 41 39 38 38 38 38 38 40 40 40 40 39 38 38 38 38 39 39 40 41 40 40 41 41 40 40 41 41 42 41
55 55 55 55 55 54 54 53 53 52 52 51 51 50 50 50 49 49 48 48 47 46 46 46 45 44 43 43 42 42 42 42 42 42 41 41 41 41 41 41 41 41 41 41 42 43 43 44 44 45 45 44 43 43 43 42 41 41 41 40 40 40 41 41 42 41 40 39 38 38 38 37 37 38 39 40 40 40 40 39 39 39 39 39 39
55 55 56 56 56 56 55 55 54 53 53 53 52 52 52 52 51 51 50 50 49 49 48 48 47 46 46 45 45 45 44 44 44 44 44 44 43 43 43 43 42 42 42 43 43 44 45 45 45 46 46 46 46 46 45 45 44 44 44 44 44 43 43 43 43 43 42 41 39 39 39 39 38 38 39 39 39 39 40 40 39 39 38 37 37
56 56 56 56 56 56 55 55 54 54 54 53 53 53 53 53 53 52 52 52 52 51 50 50 49 49 48 48 47 47 47 46 46 46 46 46 46 45 45 45 44 44 44 44 44 45 45 45 46 46 47 47 47 47 47 47 47 47 47 47 46 47 47 46 46 45 44 43 41 41 41 41 41 40 40 40 40 40 40 41 41 41 40 39 38
57 57 57 57 57 57 56 56 55 55 55 55 55 55 55 55 55 55 54 54 54 54 53 53 52 52 51 50 50 49 49 49 48 48 48 48 47 47 47 47 46 46 46 45 45 46 46 46 47 47 47 47 48 48 48 48 48 48 48 48 48 48 49 49 49 48 47 46 45 44 43 43 43 42 42 42 42 42 42 42 42 43 42 41 40
58 59 59 58 58 58 58 58 57 57 57 57 57 57 56 56 56 56 56 56 56 56 56 55 55 55 54 54 53 52 52 51 51 50 50 50 49 49 49 49 49 48 48 48 48 48 48 48 48 48 48 48 49 49 49 48 48 48 49 49 49 49 49 50 50 50 50 49 48 48 47 47 46 45 44 44 44 44 44 44 44 44 43 43 42
59 59 59 59 59 60 60 59 59 59 59 58 58 58 58 58 58 58 58 58 58 58 58 58 58 58 57 57 56 56 55 54 54 54 53 53 53 52 52 52 52 52 52 52 51 51 51 51 51 51 50 50 50 50 50 50 50 50 50 50 50 50 50 50 50 51 51 51 50 50 50 50 50 49 49 47 47 46 46 46 47 46 45 44 43
60 60 60 60 60 60 60 60 60 60 60 60 60 60 60 60 60 60 60 60 60 61 61 61 61 60 60 60 60 59 59 59 58 58 58 57 57 57 56 56 56 56 56 57 56 56 55 55 55 54 54 53 53 53 53 53 53 53 52 52 51 52 52 51 51 52 51 52 51 51 51 52 52 52 52 51 50 49 49 49 49 49 48 47 46
62 62 62 61 61 61 61 61 61 61 61 61 61 61 61 61 61 61 61 61 61 61 62 62 63 63 63 63 63 63 63 63 63 62 62 62 62 62 62 62 62 62 62 62 61 61 61 60 60 59 58 58 57 57 57 56 56 56 56 55 54 54 54 53 54 53 53 53 52 52 52 52 52 52 53 52 52 52 51 51 51 51 50 50 49
63 63 63 63 63 62 62 62 62 62 62 61 61 61 61 61 61 61 61 61 61 62 62 62 63 63 64 64 64 64 64 64 65 65 66 66 67 67 67 67 67 66 66 66 66 66 65 65 64 64 63 63 62 62 61 61 60 60 60 59 58 57 57 56 56 56 55 55 54 54 54 54 54 53 53 53 52 52 52 52 52 52 52 51 51
62 63 63 64 64 64 64 64 64 63 63 63 63 62 62 62 62 63 63 63 63 63 63 64 64 65 65 65 66 66 67 67 67 68 68 69 70 70 70 71 70 70 70 70 70 70 69 69 68 68 68 67 67 66 66 66 65 65 64 63 62 61 61 60 59 59 59 58 58 57 57 57 56 56 55 54 53 53 53 53 53 53 53 53 52
59 59 60 61 62 63 64 64 64 64 64 64 64 64 64 64 64 64 64 65 65 65 66 66 66 67 67 67 68 69 69 69 69 70 70 70 70 70 71 71 72 72 72 72 72 72 72 72 72 71 71 71 71 71 70 70 70 69 68 68 67 66 65 64 63 63 63 62 62 61 60 60 60 59 59 58 57 56 55 55 54 54 54 54 54
57 58 59 59 60 60 60 61 61 61 61 62 62 62 62 63 63 63 63 64 64 65 65 66 66 67 67 67 68 68 68 69 69 69 70 70 70 70 71 71 71 71 72 72 73 73 73 73 73 73 74 74 74 74 74 74 73 73 72 72 71 70 69 68 68 68 68 67 66 65 64 64 64 63 62 62 61 60 59 58 57 56 56 56 55
54 55 56 57 58 58 58 59 59 60 60 60 60 60 60 61 61 61 62 62 62 63 63 64 64 65 65 66 66 67 67 67 68 68 69 69 70 70 71 71 71 71 71 72 73 73 73 73 74 74 75 75 76 76 76 76 76 76 76 75 75 74 73 73 72 72 72 71 70 69 68 68 68 67 66 65 65 64 63 62 61 60 59 58 58
52 52 52 53 53 54 55 56 56 57 58 59 59 60 60 60 60 61 61 61 62 62 63 63 64 64 65 65 66 67 67 67 68 68 69 69 70 70 71 71 72 72 72 72 73 73 74 74 74 74 75 76 76 77 77 78 78 78 78 78 78 77 77 76 76 76 76 75 74 73 72 72 72 71 70 69 68 67 67 66 66 64 63 62 61
52 52 51 51 51 51 51 52 52 53 54 54 55 56 57 57 58 58 59 60 61 61 62 62 63 63 64 64 65 66 66 67 67 68 69 69 70 71 71 72 72 73 73 74 74 75 75 75 75 75 75 76 77 77 78 78 79 79 79 80 80 80 79 79 79 79 79 79 78 77 76 76 75 75 75 74 72 71 70 69 69 68 67 66 66
52 52 52 52 52 52 52 51 51 51 52 52 52 53 53 54 54 55 56 57 58 59 59 60 61 61 62 63 64 64 65 65 66 67 68 69 69 70 71 71 72 72 73 73 74 76 77 77 77 77 77 78 78 78 79 79 79 79 80 80 80 81 81 81 82 82 82 82 82 81 80 79 79 78 78 77 77 75 74 73 72 72 71 70 69
50 51 51 52 52 53 53 53 53 53 53 53 54 54 55 55 56 56 57 57 58 58 59 59 60 61 61 62 63 63 64 65 66 66 67 68 69 70 71 72 73 73 74 74 75 76 77 78 78 79 79 80 80 80 80 81 81 81 81 81 81 81 82 82 83 84 84 84 84 83 83 82 82 81 81 81 80 79 78 77 76 75 74 73 72
48 49 49 50 51 52 52 53 54 54 55 55 56 56 56 56 57 57 57 58 58 58 59 59 60 61 61 62 63 64 65 66 67 68 70 71 72 73 74 75 75 76 76 76 77 77 78 78 79 79 80 81 81 82 82 83 83 83 84 84 84 84 84 84 85 85 85 86 86 85 85 84 84 84 84 84 83 83 82 81 80 79 77 76 75
49 49 49 49 50 51 51 52 52 53 53 54 55 55 55 55 55 55 56 56 56 57 57 58 59 60 61 62 63 64 65 67 68 69 71 72 73 73 74 74 75 76 76 76 77 77 78 78 78 79 80 81 82 83 84 85 85 86 86 87 87 87 87 88 88 88 88 88 88 87 87 86 85 85 85 86 86 86 85 84 83 82 81 80 78
51 50 50 50 50 50 50 50 51 51 52 53 53 53 54 54 54 54 54 54 55 55 56 56 57 58 59 60 62 63 65 66 67 68 69 70 71 72 72 73 74 76 77 77 78 79 79 80 81 82 83 84 84 85 86 86 87 87 88 88 89 90 90 91 91 91 91 91 91 90 90 89 87 87 87 87 87 88 88 87 87 86 85 83 81
49 49 49 49 48 48 48 48 49 49 49 49 50 50 51 51 51 52 52 53 54 54 55 56 57 58 59 60 61 62 63 64 65 66 67 68 69 70 71 72 73 74 76 77 78 80 81 82 82 82 83 83 83 84 84 84 84 85 86 86 87 89 90 92 93 94 95 95 94 94 93 92 91 90 89 89 89 89 89 89 89 89 88 87 85
48 48 48 47 47 46 46 46 46 46 46 46 47 47 48 49 50 50 51 52 53 53 54 55 56 57 58 59 60 60 61 62 63 64 65 66 68 69 70 70 71 72 72 74 75 76 77 78 78 78 78 79 79 79 80 80 81 81 81 82 83 85 87 89 91 93 95 96 97 97 97 96 95 94 93 92 92 91 91 90 91 90 90 89 88
Wind_Direction
214 215 219 221 220 219 222 225 226 227 225 221 218 216 213 212 211 212 214 215 219 222 223 224 226 228 231 231 231 232 232 231 232 236 240 239 235 233 232 232 232 232 233 232 231 231 232 232 232 231 228 222 220 223 227 232 237 239 242 244 248 255 262 270 279 289 294 294 302 312 317 316 319 325 327 334 343 349 356 0 1 2 360 358 2
219 219 223 226 225 222 220 221 224 226 226 224 221 217 214 213 211 212 214 214 216 219 221 222 224 226 229 232 234 237 239 241 240 240 243 245 245 244 240 239 240 240 240 239 238 237 237 237 237 239 239 235 232 229 228 231 236 242 247 252 257 262 268 275 281 290 296 296 299 307 313 314 317 326 331 335 341 348 354 356 356 358 358 355 353
228 227 228 231 233 230 225 221 222 224 226 227 226 222 219 217 215 215 215 215 214 217 219 222 223 223 225 228 231 234 237 242 246 247 248 248 249 249 247 244 245 245 246 246 246 246 246 244 244 246 247 247 247 246 245 245 247 250 253 257 262 266 270 274 278 284 290 295 296 299 306 312 317 323 330 334 337 343 349 350 348 349 352 350 348
234 236 234 232 234 235 232 227 223 223 224 226 227 226 223 221 220 221 220 218 217 216 218 221 223 223 222 223 226 229 232 236 242 249 253 254 254 253 251 249 249 248 248 248 249 251 252 252 252 252 252 252 253 255 257 259 260 261 262 264 268 272 274 276 280 282 286 293 299 299 302 308 313 322 331 333 334 340 344 341 337 340 341 340 341
236 239 239 237 236 236 236 233 228 225 224 224 225 225 224 222 221 223 224 223 221 218 217 221 225 226 224 223 223 225 227 229 234 241 249 254 257 258 256 253 252 253 252 252 253 254 256 257 257 258 258 259 259 260 262 264 266 268 270 272 276 279 281 283 287 288 289 293 300 304 304 306 310 319 328 327 326 331 333 327 324 330 332 329 330
238 238 240 242 241 240 240 239 235 230 227 225 224 223 222 221 221 223 224 224 223 220 218 219 224 227 229 228 226 226 227 228 230 235 241 248 254 259 260 258 257 257 257 258 259 260 261 262 261 262 263 265 266 266 266 266 267 269 272 276 280 284 288 292 296 297 299 300 304 307 310 312 311 313 318 318 317 320 321 317 316 319 324 323 323
241 241 241 243 245 245 244 243 241 238 235 232 229 226 222 220 221 223 225 225 223 221 219 219 220 223 227 230 230 229 230 230 230 232 236 243 249 254 258 261 261 260 260 261 263 264 266 266 267 267 268 269 270 270 269 269 268 269 272 276 279 283 288 294 297 298 300 302 303 305 309 310 308 307 309 311 311 311 311 309 309 314 320 320 317
243 244 244 245 247 246 242 240 238 237 237 235 232 230 226 222 222 223 226 227 226 224 222 221 221 220 222 225 228 230 232 232 232 231 232 236 243 249 254 258 261 262 262 262 263 264 266 267 268 270 272 274 274 273 273 272 272 273 275 277 279 280 283 286 289 290 293 295 297 300 304 305 303 302 304 306 306 305 303 300 297 303 311 312 309
243 245 245 245 244 241 239 237 233 230 230 231 230 230 229 226 224 223 225 228 228 227 226 226 224 223 221 222 223 226 230 233 234 234 233 233 236 241 247 252 256 258 259 259 260 260 261 262 264 265 268 270 272 272 272 273 274 275 276 278 279 279 281 283 285 286 288 290 292 295 299 299 298 300 302 302 303 303 304 301 294 294 301 302 301
245 247 245 244 242 239 241 241 235 227 225 226 226 226 228 228 227 225 224 227 229 230 230 230 229 227 225 224 224 224 227 231 235 237 238 237 236 236 240 244 248 251 253 253 253 254 254 255 256 257 259 261 263 264 266 268 269 271 273 275 276 278 280 282 283 285 287 288 288 291 293 293 294 297 299 301 305 307 305 301 294 292 295 296 295
240 241 239 240 244 246 247 245 236 227 225 227 226 224 225 227 228 228 227 227 229 232 234 235 234 233 232 231 230 229 230 232 235 239 242 244 243 240 240 241 244 247 249 250 251 252 252 252 253 253 254 255 257 258 260 261 262 263 266 268 269 272 274 277 279 282 284 285 286 288 290 291 293 296 297 301 305 305 299 292 286 284 286 287 290
238 239 238 241 245 247 249 247 237 228 228 232 230 227 226 226 229 232 232 232 233 234 237 239 241 241 241 240 238 237 238 238 239 240 243 246 247 247 246 246 247 250 252 253 254 255 255 256 256 256 256 257 258 259 260 261 262 262 264 265 267 269 270 273 276 279 281 283 286 288 289 288 289 292 295 298 300 296 290 284 281 278 278 280 283
241 240 235 238 242 241 241 243 237 231 232 233 231 230 231 231 231 234 235 236 238 239 240 241 243 246 248 248 246 244 244 245 245 245 245 246 247 249 249 249 251 254 256 258 259 259 259 259 260 261 261 262 263 264 264 266 268 270 271 273 274 274 274 275 276 278 280 282 283 284 284 284 285 288 291 293 292 289 287 285 283 280 278 280 282
244 239 233 235 239 238 237 235 232 230 231 231 230 232 235 235 234 234 235 237 240 242 243 242 242 245 248 251 252 251 251 252 252 252 250 248 247 247 248 249 251 253 256 258 259 260 260 260 260 261 263 264 265 266 266 268 270 273 276 278 279 280 281 281 280 280 280 281 282 281 281 283 285 286 287 288 288 285 284 285 284 282 280 282 284
241 239 237 238 238 236 234 230 225 222 223 225 228 232 234 234 233 234 235 237 240 243 244 244 244 245 248 252 254 255 256 256 257 257 256 255 251 247 246 247 249 252 256 258 261 262 263 263 263 263 264 266 266 267 268 268 270 273 275 277 278 279 281 282 282 281 281 281 281 281 282 284 285 285 285 284 283 282 282 283 281 280 280 282 285
239 238 236 234 233 232 227 221 219 223 226 227 229 232 234 234 235 238 240 241 242 242 243 244 246 247 249 252 254 255 256 256 256 257 259 260 258 254 250 247 247 250 254 258 261 264 266 267 267 266 266 267 267 267 268 268 270 272 273 275 275 276 276 276 276 276 276 276 277 278 279 280 281 281 280 279 279 280 281 281 279 279 281 283 284
239 238 234 230 231 234 233 230 231 235 238 238 236 234 233 234 236 240 243 244 244 243 243 244 246 248 249 250 251 253 255 256 256 255 256 258 261 261 258 255 252 250 251 253 257 262 265 267 268 268 267 266 267 267 268 268 268 269 269 271 272 273 272 270 270 270 271 273 274 275 274 273 273 272 273 274 276 276 278 278 279 283 287 288 288
237 236 234 230 229 232 236 239 242 240 238 238 238 236 235 235 235 239 243 245 247 247 246 245 246 248 249 249 250 252 254 256 256 255 253 255 259 262 262 260 257 254 254 254 256 259 262 265 266 267 267 267 267 267 268 268 268 267 267 268 270 272 270 269 269 270 271 271 271 271 271 270 269 269 270 271 272 274 276 277 280 285 291 293 293
235 235 235 233 230 232 238 244 247 244 239 237 238 239 239 238 240 243 245 248 250 251 249 247 247 249 250 249 251 253 255 255 255 254 255 256 259 261 261 261 260 259 258 257 257 257 258 261 264 266 266 267 267 267 267 268 267 266 265 265 266 266 267 269 270 271 271 271 270 269 268 267 267 268 269 270 273 275 278 281 284 288 292 293 293
235 234 235 235 235 238 242 246 247 243 240 239 241 244 244 242 243 244 246 249 251 253 255 255 252 250 250 249 248 250 254 254 252 253 255 259 261 262 261 261 262 263 261 258 256 257 257 258 261 263 264 264 265 266 266 267 267 266 265 263 262 262 264 267 269 270 271 272 272 271 270 269 268 268 268 271 274 277 280 283 287 290 291 291 290
236 236 236 237 240 242 244 245 244 241 241 244 248 251 250 248 246 245 246 248 249 249 251 253 254 252 251 251 250 250 252 252 252 253 256 259 262 263 261 261 263 263 260 256 254 255 257 258 259 261 262 262 262 263 264 265 266 266 266 265 263 261 262 265 267 269 271 272 273 274 274 273 272 272 271 272 274 277 280 283 285 287 288 288 287
239 238 237 238 239 241 243 244 243 242 243 249 253 254 254 252 251 248 247 246 246 245 244 247 251 252 251 252 254 254 253 252 254 259 263 264 264 263 261 261 264 264 262 258 254 253 253 255 255 257 258 259 260 260 261 262 264 265 266 266 265 264 263 264 265 268 269 270 271 272 272 273 274 275 276 276 278 280 282 284 285 286 287 287 287
241 240 239 239 239 240 242 244 244 244 246 250 253 254 255 255 254 253 251 250 249 248 246 245 246 247 247 248 250 253 254 254 256 259 262 264 266 266 264 263 264 264 263 260 257 255 255 256 256 257 258 258 259 260 260 261 261 263 264 265 266 266 266 265 266 266 267 268 269 269 270 272 274 275 277 278 280 282 284 285 285 285 285 286 286
242 242 242 241 241 242 243 244 245 245 247 250 252 253 254 255 255 256 256 255 254 253 252 250 247 245 245 245 244 245 248 250 251 253 255 257 259 261 262 262 261 261 260 258 256 255 257 259 260 260 261 262 262 262 262 262 262 262 263 264 266 268 269 268 267 267 267 268 269 270 271 272 273 274 275 277 279 281 282 283 283 284 284 284 284
242 243 243 243 243 244 244 245 246 247 248 249 251 252 253 254 255 256 257 258 258 258 257 255 253 251 249 248 247 246 246 247 248 250 252 253 254 256 258 259 258 258 258 257 254 254 255 257 258 259 261 263 264 264 264 264 263 263 263 264 266 267 269 269 269 269 269 270 270 271 270 271 271 272 273 274 276 279 280 280 282 283 284 284 284
242 243 244 245 245 246 246 247 247 248 249 250 251 252 253 253 254 256 257 258 259 260 258 257 257 257 256 255 254 252 251 251 251 251 252 254 255 256 257 257 257 257 257 256 255 254 254 254 255 256 258 260 263 265 264 264 264 265 265 266 267 267 268 269 270 270 270 270 270 270 270 270 271 272 273 275 276 277 278 279 280 282 284 285 285
241 242 244 245 246 247 248 248 248 249 250 250 251 252 253 254 254 255 255 256 257 258 258 257 258 258 259 258 258 257 255 255 254 254 253 254 254 255 256 256 257 257 257 257 256 256 255 254 253 253 254 256 259 261 261 262 263 264 265 267 268 268 268 269 269 269 270 270 270 270 270 270 271 272 273 275 276 277 277 278 280 281 282 283 284
242 242 243 244 245 246 247 248 249 249 250 251 252 252 253 254 254 254 255 255 255 256 257 257 258 258 258 258 259 259 258 257 256 255 255 255 255 255 256 256 256 256 256 257 257 256 256 254 253 252 251 252 253 255 257 259 261 262 263 265 266 267 268 269 269 269 269 269 270 270 270 270 271 271 273 274 276 276 277 277 278 278 278 280 282
245 245 244 244 244 245 246 247 247 248 249 251 252 253 253 254 254 255 255 255 256 256 256 257 258 258 258 258 259 260 260 259 258 257 256 256 257 257 257 257 256 255 255 255 255 256 255 255 254 253 253 252 252 253 256 258 260 261 262 262 263 264 265 266 267 268 268 269 269 270 270 270 271 272 272 273 275 276 276 277 277 277 277 278 280
245 245 246 246 246 245 245 246 246 247 248 250 251 252 253 254 254 255 255 255 256 256 257 257 258 258 258 258 259 259 260 260 260 259 258 258 257 257 258 258 257 256 255 254 254 254 255 255 255 255 255 255 255 255 256 257 259 260 261 262 262 263 263 264 265 266 267 267 268 269 270 270 270 271 271 272 273 275 276 277 277 277 278 279 280
245 245 246 246 247 247 247 247 247 248 248 249 250 251 251 252 253 254 254 255 255 256 256 257 258 258 258 258 258 258 258 258 259 260 260 259 258 258 258 258 258 257 257 256 255 255 255 256 256 257 257 257 257 257 257 258 259 260 261 262 263 263 263 264 264 265 266 266 267 267 268 269 269 269 270 271 272 273 274 275 276 276 277 279 280
245 245 246 247 247 248 248 249 249 249 249 249 249 250 251 251 252 252 253 254 255 255 255 256 257 257 257 257 257 257 257 257 257 258 259 260 260 260 259 259 259 258 258 258 258 258 257 257 258 258 258 259 259 259 259 259 260 260 261 262 263 264 264 264 265 265 266 266 266 266 266 267 267 268 269 270 271 271 272 273 274 275 276 278 280
245 245 246 247 247 248 248 249 249 249 250 250 249 250 250 251 252 252 252 253 254 255 256 256 256 256 256 256 256 256 257 257 257 257 257 258 259 260 260 261 261 260 260 259 259 259 259 259 259 259 260 260 260 260 260 260 261 261 262 262 263 263 264 265 265 266 266 266 266 266 266 266 266 267 267 268 270 270 271 272 273 274 276 277 278
245 245 245 246 247 248 249 249 250 250 250 250 251 251 251 251 252 253 253 253 254 254 255 255 256 256 256 256 256 256 256 256 256 257 257 257 258 259 260 261 261 262 262 261 261 261 261 261 261 261 261 261 262 262 262 262 262 262 262 263 263 263 264 264 265 266 266 266 267 267 267 267 266 267 267 267 268 269 270 271 272 273 274 275 276
245 246 246 246 247 248 249 249 250 250 251 251 251 252 252 252 252 253 253 254 255 255 255 255 255 255 256 256 257 257 257 257 256 256 257 257 257 258 259 260 262 262 263 263 262 262 262 262 262 262 262 262 262 262 263 263 263 263 262 263 264 264 264 264 265 265 266 266 266 266 267 267 267 268 267 267 268 268 269 271 272 272 273 273 274
246 247 247 248 248 249 249 250 250 251 251 252 252 252 253 253 253 253 253 254 255 255 256 256 255 255 255 255 256 256 257 257 257 258 258 258 258 258 259 260 261 262 263 263 263 263 263 263 263 263 263 263 263 263 263 263 263 263 263 263 263 264 264 265 265 265 265 266 266 266 267 267 267 268 268 268 268 268 268 269 270 271 272 272 273
247 248 248 249 249 250 250 251 251 251 252 252 253 253 254 254 254 254 254 254 254 255 255 256 257 257 257 256 256 256 256 257 257 258 259 259 259 260 260 260 261 261 262 263 263 263 263 263 263 263 263 263 263 263 263 263 263 263 263 263 263 263 263 264 264 265 265 265 266 267 267 267 267 268 268 268 268 268 268 268 268 269 270 271 272
248 248 249 249 250 250 251 251 252 252 252 253 253 253 254 254 254 255 255 255 255 255 255 255 256 257 258 258 259 258 258 258 258 259 259 260 260 261 261 261 261 261 262 262 262 262 262 262 262 263 263 262 262 263 263 263 263 263 264 263 263 263 263 263 264 264 265 265 265 265 266 267 268 268 268 268 268 268 268 268 268 268 268 269 270
249 249 250 250 251 251 251 252 252 252 253 253 253 253 254 254 254 255 255 256 256 256 256 256 257 257 258 259 260 260 260 260 260 260 260 260 261 261 262 262 261 261 261 261 262 262 262 262 262 262 262 262 262 262 262 262 262 262 263 263 263 263 263 263 264 264 264 264 264 264 265 265 266 267 267 267 267 267 267 267 268 268 268 268 268
249 250 250 251 251 251 252 252 253 253 253 253 254 254 254 255 255 255 256 256 257 257 258 258 258 258 258 259 259 260 260 261 261 261 261 261 261 261 261 261 261 261 261 261 261 261 261 261 261 261 261 262 262 262 262 261 261 261 262 262 262 263 263 263 263 263 263 263 263 263 264 264 264 265 265 266 266 266 266 266 267 267 267 267 268
249 249 250 250 250 251 251 252 253 253 254 254 255 255 256 256 256 257 257 257 258 258 259 259 259 259 259 259 259 260 260 260 260 261 261 261 261 261 261 260 260 260 260 261 261 261 261 261 261 261 261 261 261 261 262 262 262 261 261 261 261 262 262 262 262 262 262 262 262 263 263 263 263 263 263 264 264 265 265 265 265 265 266 267 267
249 250 250 250 250 251 251 252 252 253 254 254 255 255 256 256 257 257 258 258 258 259 259 259 260 260 260 260 261 261 261 261 261 260 261 261 261 262 262 262 261 261 260 260 260 260 260 260 260 261 261 261 261 261 261 261 262 262 262 261 261 261 261 261 261 261 261 261 261 261 262 262 262 262 262 262 263 263 264 264 264 264 265 265 265
248 249 250 251 251 252 252 252 253 253 254 254 255 255 256 256 257 258 258 258 259 259 259 260 260 261 261 261 261 261 261 261 261 261 261 261 261 261 262 262 262 262 262 262 262 261 261 261 260 260 260 260 260 260 261 261 261 261 261 262 261 261 261 261 260 260 261 260 260 260 260 261 261 261 261 261 261 261 262 262 263 263 264 264 264
248 249 249 250 252 252 253 253 254 254 255 255 256 256 257 257 257 258 258 259 259 260 260 261 261 262 262 262 262 262 263 263 263 263 263 262 262 262 262 262 262 262 262 263 263 263 263 262 262 261 260 260 260 260 260 260 260 260 261 261 261 261 261 261 260 260 260 260 260 259 259 259 260 260 260 260 260 260 260 260 261 261 262 262 263
250 250 250 251 252 253 253 254 255 255 256 257 257 258 258 258 259 259 260 261 261 262 262 263 263 263 263 263 264 264 264 264 264 264 264 264 264 264 264 264 264 263 263 263 263 264 264 264 264 263 262 262 261 261 260 260 260 260 260 260 260 261 261 261 261 260 260 260 259 259 258 258 258 259 259 259 259 259 259 259 259 259 259 260 261
252 252 253 253 254 254 255 255 256 256 257 258 259 259 260 261 262 262 263 263 263 263 264 264 264 265 265 265 266 266 266 265 265 265 265 265 266 266 267 267 267 267 266 266 265 265 265 265 265 265 265 264 264 263 262 262 261 261 260 260 260 260 260 260 260 260 260 259 259 259 258 258 257 257 258 258 258 258 258 258 258 258 258 258 259
252 253 253 254 254 255 255 256 257 257 258 259 260 261 262 262 263 264 264 264 264 264 265 265 265 265 266 266 267 267 267 267 267 268 268 268 269 269 270 270 270 270 269 269 268 267 266 266 265 265 265 265 265 264 264 264 263 263 262 262 261 260 260 259 259 259 259 259 259 258 258 257 257 257 257 257 257 257 258 258 258 258 257 257 257
252 252 253 254 254 255 255 256 257 257 258 259 260 261 262 263 263 264 265 265 266 266 266 266 266 267 268 268 269 269 270 270 271 271 272 272 272 273 273 272 272 272 271 271 270 269 268 268 267 267 266 266 266 266 265 265 264 264 263 263 262 261 260 260 259 259 258 258 258 258 258 257 257 256 256 256 256 257 257 257 257 257 257 257 257
252 252 252 253 254 254 255 255 256 257 258 259 260 260 261 262 263 264 265 266 266 267 267 268 268 269 269 270 271 271 272 273 273 274 274 275 275 275 275 275 274 274 273 273 272 271 270 270 270 269 269 269 268 268 267 267 266 265 264 263 262 261 261 260 259 259 258 258 258 257 257 257 256 256 255 255 255 255 256 256 256 256 256 256 256
251 251 251 252 253 254 255 256 257 257 258 259 259 260 261 262 263 264 265 266 266 267 268 269 270 271 271 272 273 274 274 275 276 276 277 277 277 277 277 276 276 276 275 274 273 273 272 271 271 271 270 270 269 269 268 268 267 266 265 264 263 262 260 260 259 258 258 257 257 257 256 256 255 255 254 254 254 254 254 254 254 255 255 255 255
249 249 250 251 252 253 254 255 256 257 258 259 260 261 262 263 264 265 266 267 268 269 270 271 271 272 273 274 274 275 276 277 278 279 279 279 279 279 278 277 277 276 276 275 274 274 273 272 272 271 271 270 269 269 269 268 268 267 266 266 265 264 262 261 260 259 258 258 257 256 256 255 255 254 253 253 252 252 252 252 252 253 253 254 254
Height
5939 5940 5941 5942 5942 5943 5943 5945 5947 5948 5949 5950 5950 5950 5951 5952 5952 5953 5954 5955 5957 5958 5959 5960 5961 5962 5963 5963 5963 5963 5964 5964 5964 5965 5965 5966 5966 5966 5967 5967 5967 5968 5968 5969 5969 5970 5970 5971 5971 5972 5972 5972 5972 5972 5972 5972 5973 5973 5973 5973 5974 5974 5975 5975 5976 5976 5977 5977 5977 5977 5977 5977 5976 5976 5975 5975 5974 5974 5973 5973 5972 5971 5970 5969 5969
5937 5938 5939 5940 5941 5941 5941 5943 5944 5946 5947 5948 5948 5948 5949 5950 5951 5952 5952 5953 5955 5956 5958 5959 5960 5961 5962 5962 5962 5963 5963 5963 5963 5964 5964 5965 5965 5966 5966 5966 5967 5967 5968 5968 5968 5969 5969 5970 5971 5971 5972 5972 5972 5972 5972 5972 5972 5972 5972 5973 5973 5974 5974 5974 5975 5975 5975 5976 5976 5976 5976 5976 5975 5975 5975 5974 5974 5973 5973 5972 5971 5971 5970 5969 5968
5934 5936 5937 5938 5939 5940 5940 5940 5942 5943 5945 5946 5947 5947 5948 5948 5949 5950 5951 5952 5953 5954 5956 5957 5958 5959 5960 5961 5961 5962 5962 5963 5963 5963 5963 5964 5965 5965 5965 5966 5966 5966 5967 5967 5967 5968 5969 5969 5970 5971 5971 5972 5972 5972 5972 5972 5972 5972 5972 5972 5973 5973 5973 5973 5973 5974 5974 5974 5974 5974 5974 5974 5974 5974 5974 5973 5973 5973 5972 5971 5971 5970 5969 5969 5968
5932 5933 5934 5935 5936 5937 5938 5938 5939 5940 5942 5943 5944 5945 5946 5947 5948 5949 5949 5950 5951 5952 5954 5956 5957 5958 5959 5959 5960 5961 5961 5962 5962 5963 5963 5963 5964 5964 5964 5965 5965 5965 5965 5966 5966 5967 5968 5969 5969 5970 5970 5971 5971 5972 5972 5972 5972 5972 5972 5972 5972 5972 5972 5972 5972 5972 5972 5972 5973 5973 5973 5973 5973 5972 5973 5972 5972 5972 5971 5971 5970 5969 5969 5968 5968
5930 5931 5932 5932 5933 5934 5936 5936 5937 5938 5939 5940 5941 5943 5944 5945 5946 5947 5948 5949 5950 5951 5953 5954 5956 5957 5957 5958 5959 5959 5960 5960 5961 5961 5962 5962 5963 5963 5963 5964 5964 5964 5964 5965 5965 5966 5967 5968 5968 5969 5969 5970 5971 5971 5971 5971 5971 5971 5972 5972 5972 5972 5972 5972 5972 5972 5972 5971 5971 5971 5972 5972 5972 5971 5972 5971 5971 5970 5970 5970 5969 5969 5968 5968 5967
5928 5929 5930 5930 5931 5932 5934 5935 5936 5936 5937 5938 5939 5940 5942 5943 5944 5945 5946 5947 5948 5950 5951 5952 5954 5955 5956 5957 5958 5958 5959 5959 5959 5960 5960 5961 5961 5962 5962 5963 5963 5963 5964 5964 5964 5965 5965 5966 5967 5968 5968 5969 5970 5970 5970 5970 5970 5970 5970 5971 5971 5971 5971 5971 5972 5971 5971 5971 5971 5970 5971 5971 5971 5970 5970 5970 5970 5969 5969 5968 5968 5968 5968 5967 5966
5925 5926 5928 5928 5928 5930 5933 5934 5935 5936 5937 5938 5938 5938 5939 5940 5942 5943 5944 5945 5947 5948 5949 5950 5951 5952 5954 5955 5956 5957 5957 5958 5958 5958 5959 5959 5960 5960 5961 5961 5962 5962 5963 5963 5964 5964 5965 5965 5966 5967 5967 5968 5969 5969 5969 5969 5968 5968 5968 5969 5969 5969 5969 5970 5970 5970 5970 5970 5970 5969 5969 5969 5969 5969 5968 5969 5968 5968 5968 5967 5966 5966 5966 5965 5965
5922 5923 5924 5924 5924 5927 5929 5931 5932 5934 5936 5937 5937 5938 5938 5939 5939 5941 5942 5944 5945 5946 5947 5948 5948 5950 5951 5952 5954 5955 5956 5956 5956 5957 5957 5957 5958 5958 5959 5960 5960 5961 5962 5962 5962 5963 5963 5964 5964 5965 5966 5967 5967 5968 5968 5968 5967 5967 5967 5967 5967 5967 5967 5968 5968 5968 5968 5968 5968 5968 5968 5967 5967 5967 5967 5967 5967 5967 5966 5966 5965 5965 5964 5964 5963
5919 5920 5921 5921 5922 5924 5926 5926 5927 5928 5930 5933 5935 5936 5937 5937 5938 5939 5940 5942 5943 5944 5945 5946 5947 5947 5948 5949 5951 5952 5953 5954 5954 5955 5955 5955 5956 5956 5957 5958 5958 5959 5960 5960 5961 5961 5961 5961 5962 5963 5963 5964 5965 5966 5966 5966 5966 5966 5966 5966 5966 5966 5966 5966 5966 5966 5967 5967 5966 5966 5966 5966 5965 5965 5965 5965 5965 5965 5965 5965 5964 5964 5964 5963 5961
5917 5917 5918 5920 5920 5921 5922 5922 5923 5924 5925 5928 5931 5932 5934 5935 5936 5936 5938 5939 5940 5942 5943 5944 5945 5945 5946 5947 5948 5949 5950 5951 5952 5953 5953 5953 5954 5954 5955 5956 5956 5957 5957 5958 5958 5958 5958 5959 5959 5959 5960 5961 5962 5963 5963 5963 5964 5964 5964 5965 5965 5965 5965 5964 5964 5965 5965 5965 5964 5964 5964 5964 5963 5963 5963 5963 5964 5964 5963 5963 5963 5962 5962 5962 5960
5913 5914 5915 5916 5917 5917 5917 5918 5919 5921 5922 5925 5927 5928 5930 5932 5934 5934 5935 5936 5938 5939 5940 5941 5942 5943 5944 5945 5946 5947 5947 5948 5949 5950 5951 5952 5952 5952 5953 5953 5954 5955 5955 5955 5955 5956 5956 5956 5956 5957 5957 5958 5959 5960 5960 5960 5961 5961 5961 5962 5962 5963 5963 5963 5963 5963 5963 5963 5962 5962 5962 5962 5962 5961 5962 5962 5962 5962 5961 5961 5961 5961 5960 5960 5959
5911 5912 5913 5914 5914 5915 5915 5915 5916 5918 5920 5922 5924 5925 5927 5929 5931 5932 5933 5934 5936 5938 5939 5940 5941 5942 5943 5944 5944 5945 5945 5945 5947 5948 5949 5950 5951 5951 5951 5952 5953 5953 5953 5953 5954 5954 5954 5954 5954 5955 5955 5955 5956 5957 5958 5958 5958 5958 5959 5960 5960 5961 5961 5961 5961 5961 5961 5961 5961 5960 5960 5960 5960 5959 5959 5960 5960 5960 5959 5959 5959 5959 5958 5958 5957
5909 5910 5911 5912 5913 5914 5914 5914 5915 5916 5918 5920 5922 5924 5925 5927 5929 5931 5932 5933 5935 5936 5937 5938 5939 5940 5941 5941 5942 5942 5943 5944 5945 5946 5946 5947 5948 5949 5950 5951 5951 5951 5952 5952 5952 5952 5953 5952 5953 5953 5953 5954 5954 5955 5956 5956 5956 5957 5957 5958 5959 5959 5959 5959 5959 5959 5958 5958 5959 5958 5958 5958 5958 5958 5957 5957 5958 5957 5957 5957 5957 5957 5956 5956 5956
5907 5907 5908 5910 5911 5912 5913 5913 5914 5915 5916 5918 5920 5922 5924 5925 5927 5929 5930 5931 5933 5934 5934 5935 5935 5936 5938 5939 5939 5940 5942 5943 5943 5944 5944 5945 5946 5947 5947 5948 5949 5949 5950 5950 5951 5951 5951 5951 5951 5951 5951 5951 5952 5953 5954 5954 5955 5955 5956 5956 5957 5957 5957 5957 5957 5957 5957 5957 5957 5956 5956 5955 5956 5956 5955 5955 5955 5955 5955 5955 5955 5954 5954 5954 5954
5905 5905 5906 5908 5910 5911 5911 5912 5913 5914 5915 5916 5918 5919 5921 5923 5925 5927 5928 5929 5930 5930 5931 5932 5932 5933 5935 5936 5937 5939 5940 5941 5941 5942 5942 5943 5943 5944 5944 5944 5945 5946 5947 5948 5949 5949 5950 5950 5950 5950 5949 5949 5949 5950 5951 5952 5953 5953 5953 5954 5954 5954 5955 5954 5954 5954 5954 5954 5954 5954 5954 5954 5954 5954 5953 5952 5951 5951 5952 5952 5952 5951 5951 5952 5952
5903 5903 5905 5907 5908 5908 5909 5910 5911 5912 5913 5915 5916 5917 5918 5920 5923 5924 5925 5926 5926 5928 5929 5929 5930 5931 5932 5933 5934 5936 5937 5937 5938 5939 5940 5941 5941 5941 5941 5941 5942 5943 5944 5945 5946 5947 5948 5948 5949 5948 5948 5947 5946 5946 5947 5948 5950 5951 5951 5951 5951 5951 5952 5951 5950 5950 5950 5950 5951 5952 5952 5952 5951 5951 5950 5949 5948 5948 5948 5949 5948 5947 5948 5950 5950
5900 5901 5903 5905 5906 5906 5906 5908 5909 5911 5912 5913 5915 5916 5917 5919 5920 5921 5922 5923 5924 5925 5926 5926 5927 5928 5929 5929 5930 5931 5932 5933 5934 5935 5936 5937 5938 5939 5939 5939 5939 5939 5939 5941 5942 5943 5944 5945 5946 5946 5946 5945 5944 5944 5944 5945 5947 5948 5948 5948 5948 5948 5948 5947 5945 5946 5947 5947 5948 5949 5949 5949 5948 5947 5946 5945 5945 5944 5945 5946 5945 5944 5946 5947 5947
5896 5898 5900 5902 5904 5904 5905 5906 5907 5909 5910 5912 5913 5914 5915 5917 5918 5918 5919 5920 5921 5922 5922 5923 5923 5924 5925 5926 5926 5927 5928 5929 5930 5931 5932 5933 5935 5936 5936 5937 5936 5936 5936 5937 5938 5939 5940 5941 5942 5943 5944 5943 5942 5941 5941 5942 5944 5944 5944 5945 5945 5945 5944 5943 5942 5944 5944 5944 5945 5945 5946 5945 5945 5944 5943 5942 5941 5941 5942 5943 5942 5942 5943 5944 5944
5893 5895 5896 5899 5901 5902 5903 5904 5905 5906 5908 5909 5911 5912 5913 5914 5915 5916 5916 5917 5917 5918 5919 5920 5920 5921 5922 5922 5923 5923 5924 5925 5926 5927 5928 5929 5930 5931 5932 5933 5933 5934 5934 5935 5935 5936 5936 5937 5938 5940 5940 5940 5940 5938 5938 5938 5939 5940 5941 5941 5942 5941 5940 5939 5940 5941 5941 5941 5942 5942 5943 5943 5942 5942 5941 5939 5938 5938 5939 5940 5940 5940 5941 5941 5940
5890 5892 5893 5895 5896 5898 5900 5901 5902 5903 5904 5906 5907 5908 5910 5911 5912 5913 5913 5914 5914 5915 5916 5917 5917 5918 5919 5919 5920 5920 5920 5922 5923 5923 5924 5925 5926 5926 5927 5929 5930 5930 5931 5931 5932 5932 5933 5933 5934 5936 5937 5937 5937 5935 5934 5934 5935 5935 5936 5937 5938 5937 5937 5937 5937 5938 5938 5939 5939 5939 5940 5940 5939 5939 5938 5937 5936 5936 5936 5937 5937 5937 5938 5938 5937
5886 5888 5890 5891 5892 5894 5895 5897 5898 5899 5900 5901 5902 5904 5905 5906 5908 5909 5910 5911 5911 5913 5913 5913 5914 5916 5916 5916 5916 5916 5917 5919 5920 5920 5920 5921 5921 5922 5923 5924 5925 5926 5926 5926 5927 5929 5929 5930 5930 5931 5932 5933 5933 5932 5931 5930 5930 5931 5931 5932 5933 5934 5934 5934 5934 5935 5936 5936 5937 5937 5937 5936 5936 5935 5935 5935 5933 5933 5934 5934 5934 5934 5934 5934 5933
5882 5883 5885 5887 5888 5890 5891 5893 5894 5895 5896 5897 5898 5900 5901 5902 5903 5905 5906 5907 5908 5910 5910 5911 5911 5912 5913 5913 5913 5912 5914 5916 5917 5917 5918 5918 5918 5919 5920 5920 5921 5921 5921 5922 5923 5924 5925 5926 5926 5926 5927 5928 5928 5928 5927 5927 5926 5926 5926 5927 5928 5929 5930 5931 5931 5932 5932 5933 5933 5934 5933 5932 5931 5931 5931 5931 5930 5930 5930 5931 5930 5930 5929 5929 5928
5877 5879 5881 5882 5884 5885 5887 5889 5890 5891 5893 5894 5895 5896 5897 5898 5899 5900 5901 5903 5904 5905 5907 5908 5908 5909 5910 5911 5911 5910 5910 5911 5913 5914 5915 5915 5915 5915 5916 5917 5917 5917 5918 5918 5919 5920 5921 5922 5921 5922 5923 5923 5924 5924 5923 5922 5922 5922 5922 5923 5924 5925 5926 5927 5928 5927 5928 5928 5929 5929 5929 5928 5928 5928 5927 5926 5926 5926 5926 5926 5925 5924 5924 5924 5923
5872 5874 5875 5877 5879 5881 5882 5884 5886 5887 5888 5890 5891 5892 5893 5894 5895 5896 5897 5898 5899 5900 5901 5903 5903 5904 5905 5906 5907 5907 5907 5907 5908 5909 5910 5911 5911 5911 5912 5913 5913 5914 5914 5915 5915 5916 5917 5917 5917 5917 5918 5919 5919 5919 5918 5918 5917 5917 5918 5918 5919 5920 5922 5922 5922 5923 5924 5924 5925 5925 5925 5924 5924 5923 5923 5922 5922 5922 5921 5921 5920 5919 5919 5919 5919
5867 5869 5871 5872 5874 5876 5878 5879 5881 5882 5883 5885 5886 5887 5888 5889 5890 5891 5892 5893 5894 5895 5896 5897 5898 5898 5899 5900 5901 5902 5903 5903 5904 5904 5904 5905 5906 5906 5907 5908 5909 5910 5910 5911 5911 5911 5912 5912 5912 5912 5913 5914 5914 5914 5914 5913 5912 5912 5913 5913 5915 5916 5916 5916 5917 5918 5919 5920 5920 5920 5921 5920 5918 5918 5918 5917 5917 5917 5916 5915 5914 5913 5913 5913 5914
5862 5864 5865 5867 5869 5871 5873 5875 5876 5878 5879 5880 5881 5882 5883 5885 5886 5887 5887 5888 5889 5889 5890 5891 5892 5893 5893 5894 5895 5896 5897 5898 5899 5899 5900 5900 5901 5901 5902 5903 5904 5905 5906 5906 5907 5907 5907 5907 5907 5908 5908 5908 5909 5909 5909 5908 5908 5908 5908 5909 5910 5911 5911 5911 5912 5913 5914 5914 5915 5915 5915 5915 5914 5913 5913 5913 5913 5913 5911 5910 5910 5910 5908 5907 5909
5857 5858 5860 5862 5863 5865 5867 5869 5870 5872 5873 5875 5876 5877 5878 5879 5881 5882 5883 5884 5884 5885 5885 5886 5887 5888 5888 5888 5889 5889 5891 5892 5893 5894 5895 5895 5896 5897 5897 5898 5899 5900 5901 5901 5902 5902 5902 5902 5903 5903 5904 5903 5903 5903 5903 5903 5903 5903 5903 5904 5905 5906 5906 5906 5906 5907 5908 5909 5910 5910 5910 5910 5910 5909 5908 5908 5909 5908 5906 5906 5906 5906 5904 5903 5904
5851 5853 5854 5856 5858 5859 5861 5863 5864 5866 5867 5869 5870 5871 5872 5874 5875 5876 5878 5878 5879 5880 5880 5881 5882 5882 5883 5883 5883 5883 5884 5885 5887 5888 5889 5890 5891 5891 5892 5893 5894 5895 5896 5896 5897 5897 5897 5897 5897 5898 5898 5898 5898 5897 5897 5897 5898 5898 5898 5898 5899 5900 5900 5900 5900 5901 5902 5903 5904 5905 5905 5904 5905 5904 5904 5904 5903 5902 5901 5901 5901 5901 5900 5899 5899
5845 5847 5848 5850 5852 5854 5855 5857 5858 5859 5861 5862 5864 5865 5866 5868 5869 5870 5871 5872 5873 5874 5874 5875 5876 5877 5877 5878 5878 5878 5878 5879 5880 5881 5882 5883 5884 5885 5886 5887 5889 5890 5890 5891 5891 5891 5891 5892 5892 5892 5893 5893 5893 5892 5892 5892 5892 5893 5893 5893 5894 5894 5894 5894 5895 5896 5897 5898 5899 5899 5899 5899 5899 5899 5898 5899 5898 5897 5896 5896 5896 5895 5895 5894 5894
5838 5840 5841 5843 5845 5847 5849 5850 5852 5853 5855 5856 5857 5859 5860 5861 5862 5863 5865 5866 5867 5867 5868 5869 5870 5871 5871 5872 5873 5873 5873 5873 5874 5874 5876 5877 5878 5879 5880 5881 5882 5883 5884 5885 5885 5885 5885 5886 5886 5886 5886 5886 5887 5887 5886 5887 5887 5887 5887 5887 5888 5888 5888 5888 5889 5889 5891 5892 5893 5893 5893 5893 5893 5893 5892 5893 5892 5892 5891 5891 5890 5889 5889 5889 5889
5831 5832 5834 5836 5838 5840 5842 5844 5845 5847 5848 5850 5851 5852 5853 5854 5855 5856 5857 5858 5860 5861 5862 5862 5863 5864 5865 5866 5866 5867 5868 5868 5868 5868 5869 5870 5871 5873 5874 5874 5875 5876 5877 5878 5879 5879 5879 5880 5880 5879 5880 5880 5880 5880 5880 5881 5881 5881 5881 5881 5881 5882 5883 5883 5883 5883 5884 5885 5886 5887 5887 5887 5887 5887 5887 5887 5887 5887 5886 5885 5885 5884 5883 5883 5883
5823 5825 5827 5829 5831 5832 5834 5836 5838 5840 5841 5843 5844 5845 5846 5847 5848 5849 5851 5851 5852 5853 5854 5855 5856 5857 5858 5859 5860 5860 5861 5862 5862 5863 5863 5863 5864 5865 5866 5867 5868 5869 5870 5871 5871 5872 5872 5873 5873 5873 5873 5873 5874 5874 5874 5875 5875 5875 5875 5875 5875 5876 5876 5876 5877 5877 5878 5879 5880 5880 5880 5880 5880 5881 5881 5881 5881 5881 5880 5880 5879 5878 5878 5878 5878
5816 5818 5820 5821 5823 5824 5826 5828 5830 5832 5834 5835 5837 5838 5839 5840 5841 5842 5843 5845 5845 5846 5847 5848 5849 5850 5851 5852 5852 5853 5854 5855 5855 5856 5857 5857 5857 5858 5859 5859 5860 5862 5863 5864 5864 5865 5865 5865 5866 5866 5866 5867 5867 5867 5867 5868 5868 5868 5868 5869 5869 5869 5869 5870 5870 5871 5871 5872 5873 5873 5873 5873 5874 5874 5875 5875 5874 5874 5874 5874 5873 5872 5872 5873 5873
5809 5811 5812 5814 5816 5817 5818 5820 5822 5824 5826 5827 5829 5830 5832 5833 5834 5835 5836 5837 5838 5839 5840 5841 5841 5842 5843 5844 5845 5846 5847 5848 5849 5849 5850 5850 5851 5852 5852 5853 5853 5854 5855 5856 5857 5857 5858 5858 5859 5859 5860 5860 5860 5860 5860 5861 5861 5862 5862 5862 5862 5863 5863 5863 5864 5864 5864 5865 5865 5866 5866 5866 5866 5867 5868 5868 5868 5868 5868 5867 5867 5867 5867 5867 5867
5801 5803 5805 5807 5808 5810 5811 5813 5814 5816 5818 5819 5821 5822 5824 5825 5827 5828 5828 5829 5830 5831 5832 5833 5834 5834 5835 5836 5837 5838 5839 5840 5841 5842 5842 5843 5844 5844 5845 5845 5846 5846 5847 5847 5848 5849 5850 5850 5851 5851 5852 5853 5853 5853 5853 5854 5854 5854 5855 5855 5856 5856 5856 5857 5857 5857 5857 5858 5858 5858 5858 5858 5859 5859 5860 5861 5861 5861 5861 5861 5860 5860 5860 5860 5860
5794 5796 5797 5799 5801 5803 5804 5805 5807 5808 5810 5811 5813 5814 5816 5817 5819 5820 5821 5822 5822 5823 5823 5824 5825 5827 5828 5829 5830 5831 5832 5832 5833 5834 5834 5835 5836 5837 5838 5838 5838 5838 5839 5839 5839 5840 5841 5842 5843 5843 5844 5844 5845 5845 5846 5846 5847 5847 5847 5848 5849 5849 5849 5850 5850 5850 5850 5850 5851 5851 5851 5851 5851 5851 5852 5853 5854 5854 5854 5854 5854 5853 5853 5853 5853
5786 5788 5790 5792 5793 5795 5796 5798 5799 5800 5802 5803 5805 5806 5808 5809 5810 5811 5813 5814 5815 5816 5816 5816 5817 5818 5819 5820 5821 5822 5823 5824 5825 5825 5826 5826 5827 5828 5829 5829 5830 5830 5831 5831 5831 5831 5832 5833 5834 5835 5835 5836 5837 5837 5838 5838 5838 5838 5839 5840 5841 5841 5842 5842 5842 5842 5843 5843 5843 5843 5843 5843 5844 5844 5844 5845 5846 5846 5846 5846 5846 5846 5847 5846 5846
5778 5780 5782 5784 5785 5787 5788 5789 5791 5792 5794 5795 5797 5798 5799 5801 5802 5803 5804 5805 5806 5807 5808 5809 5809 5809 5810 5810 5811 5813 5814 5815 5816 5816 5817 5817 5817 5818 5819 5820 5821 5821 5822 5822 5822 5822 5823 5824 5824 5825 5826 5827 5828 5829 5829 5829 5829 5830 5830 5831 5832 5833 5834 5834 5834 5835 5835 5835 5836 5836 5836 5835 5836 5836 5836 5837 5838 5838 5838 5838 5838 5838 5839 5839 5839
5770 5772 5773 5775 5777 5778 5779 5781 5782 5783 5785 5787 5788 5789 5791 5792 5793 5794 5795 5796 5797 5798 5799 5800 5800 5801 5801 5802 5802 5803 5803 5805 5805 5806 5807 5808 5808 5808 5809 5810 5810 5811 5811 5812 5812 5812 5813 5814 5814 5815 5816 5816 5817 5818 5819 5819 5820 5820 5821 5821 5823 5824 5825 5825 5826 5826 5826 5827 5827 5828 5828 5827 5827 5827 5828 5829 5830 5830 5830 5830 5830 5830 5830 5831 5831
5762 5764 5765 5766 5768 5769 5770 5772 5773 5775 5776 5777 5778 5780 5781 5783 5784 5785 5786 5787 5788 5789 5789 5790 5791 5791 5792 5792 5792 5793 5793 5794 5794 5795 5796 5796 5797 5797 5798 5799 5799 5800 5800 5801 5801 5801 5802 5803 5804 5804 5805 5805 5806 5807 5808 5808 5809 5810 5811 5811 5812 5814 5815 5816 5816 5816 5816 5817 5818 5818 5819 5819 5818 5818 5819 5819 5820 5821 5821 5822 5822 5822 5822 5822 5823
5754 5756 5757 5758 5759 5760 5762 5763 5765 5766 5767 5768 5769 5771 5772 5773 5774 5776 5777 5778 5778 5779 5779 5780 5780 5781 5781 5782 5782 5783 5784 5784 5785 5785 5784 5785 5785 5786 5786 5787 5788 5789 5789 5789 5790 5790 5791 5792 5793 5793 5794 5794 5795 5795 5796 5796 5797 5798 5799 5800 5801 5802 5804 5805 5805 5805 5805 5806 5808 5808 5809 5809 5809 5809 5809 5810 5810 5811 5812 5812 5813 5814 5814 5814 5814
5746 5747 5748 5749 5750 5752 5754 5755 5756 5758 5759 5760 5761 5763 5764 5765 5766 5767 5768 5768 5769 5769 5770 5770 5771 5771 5772 5772 5772 5773 5773 5774 5774 5774 5774 5774 5774 5774 5775 5775 5776 5777 5778 5779 5779 5779 5780 5781 5782 5782 5782 5783 5783 5783 5784 5785 5785 5786 5787 5788 5789 5791 5792 5793 5794 5794 5794 5795 5797 5797 5798 5798 5798 5798 5799 5800 5801 5801 5802 5802 5803 5804 5805 5805 5805
5737 5738 5739 5740 5742 5744 5745 5747 5748 5749 5751 5752 5753 5754 5755 5757 5758 5758 5759 5759 5759 5760 5761 5761 5762 5762 5762 5762 5762 5762 5763 5763 5764 5764 5764 5764 5764 5764 5765 5765 5765 5766 5766 5767 5767 5767 5768 5769 5770 5771 5771 5771 5771 5771 5772 5772 5773 5774 5774 5775 5777 5778 5779 5781 5781 5781 5781 5782 5784 5786 5787 5787 5787 5787 5788 5789 5790 5791 5792 5792 5793 5794 5795 5795 5796
5729 5730 5731 5733 5734 5736 5737 5739 5740 5742 5743 5744 5745 5747 5748 5749 5749 5749 5749 5750 5750 5751 5752 5752 5752 5753 5753 5752 5752 5752 5752 5753 5753 5753 5753 5753 5754 5754 5754 5755 5755 5755 5755 5756 5755 5755 5755 5756 5757 5758 5759 5759 5759 5760 5760 5761 5761 5762 5762 5763 5764 5765 5766 5767 5768 5768 5768 5769 5771 5772 5774 5775 5775 5776 5776 5777 5778 5779 5780 5781 5781 5783 5784 5785 5785
5720 5722 5723 5725 5727 5728 5730 5731 5733 5734 5735 5736 5738 5739 5739 5740 5740 5741 5741 5742 5742 5743 5743 5743 5743 5743 5743 5742 5742 5742 5743 5743 5742 5742 5742 5742 5742 5742 5743 5743 5744 5744 5744 5745 5744 5743 5742 5743 5743 5744 5745 5746 5746 5747 5748 5748 5749 5749 5750 5750 5751 5752 5753 5753 5753 5753 5754 5755 5756 5758 5760 5761 5763 5763 5763 5764 5765 5767 5768 5769 5769 5771 5772 5774 5774
5713 5714 5716 5717 5719 5720 5722 5723 5725 5726 5727 5729 5730 5730 5730 5731 5732 5733 5733 5733 5734 5734 5734 5734 5734 5733 5733 5733 5733 5733 5733 5732 5732 5732 5732 5731 5731 5731 5731 5731 5732 5732 5732 5733 5732 5731 5731 5731 5731 5731 5732 5732 5733 5733 5734 5735 5735 5736 5737 5737 5738 5739 5740 5739 5739 5739 5740 5740 5741 5743 5745 5747 5749 5750 5750 5751 5752 5754 5755 5757 5757 5758 5760 5762 5762
5705 5707 5708 5710 5711 5712 5714 5715 5717 5718 5720 5720 5721 5721 5722 5723 5724 5724 5724 5724 5725 5725 5725 5725 5724 5724 5724 5723 5723 5723 5722 5722 5721 5721 5721 5720 5720 5720 5720 5719 5719 5719 5719 5719 5719 5718 5718 5718 5718 5718 5718 5719 5719 5720 5720 5721 5721 5722 5722 5723 5724 5725 5725 5725 5725 5725 5725 5725 5726 5728 5730 5732 5735 5736 5737 5737 5739 5740 5742 5743 5744 5745 5747 5749 5750
5698 5700 5701 5703 5704 5705 5707 5708 5709 5710 5711 5712 5713 5714 5714 5715 5715 5715 5716 5716 5716 5716 5716 5715 5715 5715 5714 5714 5713 5713 5712 5711 5711 5710 5709 5709 5708 5708 5707 5707 5706 5706 5705 5705 5705 5704 5704 5704 5704 5705 5705 5705 5705 5705 5706 5706 5706 5707 5707 5707 5708 5708 5709 5709 5710 5710 5710 5710 5711 5713 5715 5717 5720 5722 5723 5724 5725 5726 5727 5730 5731 5732 5733 5735 5737
5691 5693 5694 5695 5696 5698 5699 5700 5701 5702 5703 5704 5705 5706 5706 5707 5707 5707 5707 5707 5707 5707 5707 5706 5706 5705 5705 5704 5703 5703 5702 5701 5700 5699 5699 5698 5697 5696 5695 5694 5693 5692 5692 5692 5691 5690 5690 5690 5690 5689 5689 5690 5690 5690 5690 5690 5690 5691 5691 5691 5692 5692 5692 5692 5693 5694 5694 5694 5696 5697 5699 5702 5705 5707 5708 5710 5710 5711 5713 5715 5717 5718 5719 5721 5724
5684 5685 5687 5688 5689 5691 5692 5693 5694 5695 5696 5696 5697 5698 5698 5699 5699 5699 5699 5699 5699 5698 5698 5697 5697 5696 5695 5695 5694 5693 5692 5691 5690 5689 5688 5687 5686 5685 5683 5682 5681 5679 5679 5678 5677 5676 5675 5675 5675 5674 5674 5674 5674 5674 5673 5674 5674 5674 5674 5674 5675 5675 5675 5675 5675 5676 5676 5677 5679 5681 5683 5685 5688 5690 5692 5694 5695 5696 5698 5700 5701 5703 5705 5707 5710
5676 5678 5679 5681 5682 5683 5685 5686 5686 5687 5688 5689 5689 5690 5690 5690 5691 5691 5691 5690 5690 5690 5689 5688 5688 5687 5686 5685 5684 5684 5682 5681 5680 5678 5677 5676 5674 5673 5672 5670 5669 5667 5666 5665 5664 5663 5661 5660 5660 5660 5659 5659 5659 5658 5658 5658 5658 5658 5658 5658 5658 5658 5658 5658 5659 5659 5659 5659 5662 5664 5666 5668 5670 5673 5675 5677 5678 5680 5682 5684 5685 5687 5690 5692 5694